• Join FlightAware (Why Join?)
  • Login
  • US Flag 
03:16PM EDT


 

Airport Tracker/Info


-or-


 

Live Flight TrackerFlight Track Log ✈ N425QS ✈ 19-May-2013 ✈ KSJC - KVNY

Flight Track Log - Related Links

Times and Time Zones

All times are in EDT time to prevent confusion due to time zone crossing. See the N425QS flight status page for this flight to view local times or setup timezone preferences in your user account.

Time Position Orientation Groundspeed Altitude Reporting Facility
EDT Latitude Longitude Course Direction KTS MPH feet Rate Location/Type
01:26PM 37.3833 -121.9500 137° Southeast 187 215 1,900  Level Northern Cal TRACON
01:27PM 37.4333 -121.9667 345° North 209 241 4,500 1,500 Climbing Northern Cal TRACON
01:29PM 37.3747 -121.8372 120° Southeast 230 265 6,500 1,320 Climbing Oakland Center
01:30PM 37.3239 -121.7822 139° Southeast 266 306 8,700 2,160 Climbing Oakland Center
01:31PM 37.3607 -121.9269 137° Southeast  Level Estimated
01:31PM 37.2450 -121.6931 138° Southeast 316 364 11,000  Level Oakland Center
01:32PM 37.1669 -121.6033 137° Southeast 376 433 12,900 1,860 Climbing Oakland Center
01:33PM 37.0836 -121.5125 139° Southeast 403 464 14,900 2,220 Climbing Oakland Center
01:34PM 36.9875 -121.4056 138° Southeast 415 478 17,500 2,340 Climbing Oakland Center
01:35PM 36.8978 -121.3067 139° Southeast 430 495 19,700 2,100 Climbing Oakland Center
01:36PM 36.8136 -121.2161 139° Southeast 444 511 21,900 2,220 Climbing Oakland Center
01:37PM 36.7169 -121.1119 139° Southeast 456 525 24,300 2,220 Climbing Oakland Center
01:38PM 36.5947 -120.9817 139° Southeast 477 549 26,500 1,260 Climbing Oakland Center
01:39PM 36.4878 -120.8656 139° Southeast 503 579 27,000 240 Climbing Oakland Center
01:40PM 36.3761 -120.7456 139° Southeast 525 604 27,000  Level Oakland Center
01:41PM 36.2631 -120.6261 140° Southeast 531 611 27,000  Level Oakland Center
01:42PM 36.1506 -120.5067 139° Southeast 532 612 27,000  Level Oakland Center
01:43PM 36.0372 -120.3844 139° Southeast 538 619 27,000  Level Oakland Center
01:44PM 35.9267 -120.2706 140° Southeast 516 594 27,000  Level Oakland Center
01:45PM 35.8125 -120.1511 140° Southeast 529 609 27,000  Level Oakland Center
01:46PM 35.7000 -120.0336 140° Southeast 527 606 27,000 -360 Level Oakland Center
01:47PM 35.5850 -119.9239 142° Southeast 520 598 26,300 -840 Descending Oakland Center
01:48PM 35.4731 -119.8281 145° Southeast 492 566 25,300 -1,140 Descending Oakland Center
01:49PM 35.3408 -119.7153 145° Southeast 483 556 24,000 -660 Descending Los Angeles Center
01:50PM 35.2314 -119.6208 145° Southeast 481 554 24,000  Level Los Angeles Center
01:51PM 35.1239 -119.5289 145° Southeast 473 544 24,000 -480 Level Los Angeles Center
01:52PM 35.0161 -119.4369 145° Southeast 472 543 23,100 -1,620 Descending Los Angeles Center
01:53PM 34.9108 -119.3472 145° Southeast 464 534 20,700 -2,520 Descending Los Angeles Center
01:54PM 34.7906 -119.2444 145° Southeast 440 506 17,900 -2,520 Descending Los Angeles Center
01:55PM 34.6942 -119.1636 145° Southeast 424 488 15,600 -2,100 Descending Los Angeles Center
01:56PM 34.6011 -119.0883 146° Southeast 377 434 13,600 -1,860 Descending Los Angeles Center
01:57PM 34.5244 -119.0236 145° Southeast 335 386 11,800 -1,260 Descending Los Angeles Center
01:58PM 34.4489 -118.9586 145° Southeast 333 383 11,100 -780 Descending Los Angeles Center
01:59PM 34.3864 -118.8850 136° Southeast 307 353 10,300 -1,500 Descending Los Angeles Center
02:00PM 34.3747 -118.7844 98° East 303 349 8,100 -1,860 Descending Los Angeles Center
02:02PM 34.3633 -118.6944 99° East 275 316 6,500 -1,500 Descending Los Angeles Center
02:03PM 34.3531 -118.5956 97° East 250 288 5,000 -1,080 Descending Los Angeles Center
02:04PM 34.3433 -118.5269 100° East 222 255 4,300 -1,020 Descending Los Angeles Center
02:05PM 34.2944 -118.5008 156° South 196 226 3,000 -1,260 Descending Los Angeles Center
02:06PM 34.2522 -118.4942 173° South 169 194 1,800 -900 Descending Los Angeles Center
02:07PM 34.2097 -118.4903 176° South 156 180 1,200 -600 Descending Los Angeles Center
02:09PM 34.2098 -118.4900 180° South  Level Estimated